When you browse on this site, cookies collect data to enhance your experience and personalize the content and advertising you see.
Visit our Privacy Policy to learn more. By continuing to use the site, you agree to this use of cookies and data.
  • In Portugal
  • List of Countries
  • For 7 days
  • Water Temperature
  • Weather Map
  • Weather Widgets
  • user-avatar
    Login

    Hourly Weather Edige

    Today, 31 May, Sunday

    Time Temperature Precipitation Wind Pressure Humidity
    00:00 +19°C° 0 mm 3 mps 763 mmHg 60%
    01:00 +19°C° 0.1 mm 3 mps 763 mmHg 65%
    02:00 +18°C° 0.1 mm 3 mps 763 mmHg 69%
    03:00 +18°C° 0 mm 3 mps 764 mmHg 72%
    04:00 +19°C° 0.3 mm 2 mps 764 mmHg 72%
    05:00 +20°C° 0.3 mm 1 mps 764 mmHg 73%
    06:00 +20°C° 0.3 mm 1 mps 764 mmHg 74%
    07:00 +21°C° 0.1 mm 1 mps 764 mmHg 71%
    08:00 +21°C° 0.1 mm 1 mps 764 mmHg 69%
    09:00 +21°C° 0 mm 1 mps 765 mmHg 65%
    10:00 +22°C° 0 mm 1 mps 765 mmHg 62%
    11:00 +23°C° 0 mm 2 mps 764 mmHg 58%
    12:00 +23°C° 0 mm 2 mps 764 mmHg 55%
    13:00 +24°C° 0 mm 2 mps 764 mmHg 50%
    14:00 +25°C° 0 mm 3 mps 764 mmHg 46%
    15:00 +27°C° 0 mm 3 mps 763 mmHg 40%
    16:00 +26°C° 0 mm 4 mps 763 mmHg 41%
    17:00 +26°C° 0 mm 4 mps 763 mmHg 43%
    18:00 +25°C° 0 mm 5 mps 762 mmHg 45%
    19:00 +23°C° 0 mm 4 mps 763 mmHg 49%
    20:00 +21°C° 0 mm 3 mps 763 mmHg 53%
    21:00 +19°C° 0 mm 3 mps 763 mmHg 57%
    22:00 +19°C° 0 mm 2 mps 763 mmHg 59%
    23:00 +18°C° 0 mm 2 mps 762 mmHg 60%

    Tomorrow, 1 June, Monday

    Time Temperature Precipitation Wind Pressure Humidity
    00:00 +18°C° 0 mm 2 mps 762 mmHg 61%
    01:00 +18°C° 0 mm 2 mps 762 mmHg 62%
    02:00 +18°C° 0 mm 2 mps 762 mmHg 62%
    03:00 +17°C° 0 mm 2 mps 762 mmHg 62%
    04:00 +18°C° 0 mm 2 mps 762 mmHg 61%
    05:00 +19°C° 0 mm 3 mps 761 mmHg 60%
    06:00 +20°C° 0 mm 3 mps 761 mmHg 58%
    07:00 +22°C° 0 mm 5 mps 761 mmHg 52%
    08:00 +24°C° 0 mm 6 mps 760 mmHg 47%
    09:00 +27°C° 0 mm 7 mps 760 mmHg 41%
    10:00 +28°C° 0 mm 8 mps 760 mmHg 39%
    11:00 +29°C° 0 mm 9 mps 759 mmHg 37%
    12:00 +29°C° 0 mm 9 mps 759 mmHg 36%
    13:00 +29°C° 0 mm 9 mps 758 mmHg 36%
    14:00 +29°C° 0 mm 8 mps 758 mmHg 37%
    15:00 +29°C° 0 mm 8 mps 758 mmHg 38%
    16:00 +28°C° 0 mm 7 mps 758 mmHg 42%
    17:00 +27°C° 0 mm 7 mps 757 mmHg 45%
    18:00 +26°C° 0 mm 6 mps 757 mmHg 49%
    19:00 +23°C° 0 mm 5 mps 757 mmHg 55%
    20:00 +22°C° 0 mm 4 mps 757 mmHg 62%
    21:00 +20°C° 0 mm 3 mps 758 mmHg 68%
    22:00 +20°C° 0 mm 2 mps 757 mmHg 71%
    23:00 +19°C° 0 mm 2 mps 757 mmHg 73%

    Day after tomorrow, 2 June, Tuesday

    Time Temperature Precipitation Wind Pressure Humidity
    00:00 +20°C° 0 mm 1 mps 757 mmHg 76%
    01:00 +20°C° 0 mm 1 mps 757 mmHg 76%
    02:00 +19°C° 0 mm 1 mps 757 mmHg 77%
    03:00 +18°C° 0 mm 2 mps 757 mmHg 78%
    04:00 +19°C° 0 mm 2 mps 757 mmHg 75%
    05:00 +20°C° 0 mm 2 mps 757 mmHg 72%
    06:00 +21°C° 0 mm 3 mps 757 mmHg 69%
    07:00 +22°C° 0 mm 3 mps 756 mmHg 61%
    08:00 +25°C° 0 mm 3 mps 756 mmHg 54%
    09:00 +27°C° 0 mm 3 mps 756 mmHg 46%
    10:00 +28°C° 0 mm 3 mps 756 mmHg 42%
    11:00 +29°C° 0 mm 3 mps 756 mmHg 38%
    12:00 +31°C° 0 mm 3 mps 756 mmHg 34%
    13:00 +31°C° 0 mm 3 mps 755 mmHg 34%
    14:00 +33°C° 0 mm 3 mps 755 mmHg 34%
    15:00 +33°C° 0 mm 3 mps 755 mmHg 34%
    16:00 +31°C° 0 mm 3 mps 755 mmHg 39%
    17:00 +30°C° 0 mm 3 mps 755 mmHg 44%
    18:00 +29°C° 0 mm 3 mps 755 mmHg 48%
    19:00 +28°C° 0 mm 3 mps 755 mmHg 52%
    20:00 +26°C° 0 mm 2 mps 755 mmHg 56%
    21:00 +25°C° 0 mm 2 mps 755 mmHg 60%
    22:00 +24°C° 0 mm 2 mps 755 mmHg 64%
    23:00 +23°C° 0 mm 2 mps 754 mmHg 68%

    3 June, Wednesday

    Time Temperature Precipitation Wind Pressure Humidity
    00:00 +22°C° 0 mm 1 mps 754 mmHg 71%
    01:00 +22°C° 0 mm 1 mps 754 mmHg 72%
    02:00 +21°C° 0 mm 2 mps 754 mmHg 72%
    03:00 +21°C° 0 mm 2 mps 753 mmHg 73%
    04:00 +21°C° 0 mm 2 mps 753 mmHg 71%
    05:00 +23°C° 0 mm 2 mps 753 mmHg 68%
    06:00 +24°C° 0 mm 2 mps 753 mmHg 66%
    07:00 +25°C° 0 mm 2 mps 753 mmHg 60%
    08:00 +27°C° 0 mm 3 mps 753 mmHg 53%
    09:00 +29°C° 0 mm 4 mps 753 mmHg 47%
    10:00 +30°C° 0 mm 4 mps 753 mmHg 43%
    11:00 +32°C° 0 mm 4 mps 753 mmHg 40%
    12:00 +33°C° 0 mm 4 mps 754 mmHg 36%
    13:00 +34°C° 0 mm 3 mps 753 mmHg 35%
    14:00 +34°C° 0 mm 3 mps 753 mmHg 33%
    15:00 +35°C° 0 mm 3 mps 753 mmHg 31%
    16:00 +34°C° 0 mm 3 mps 753 mmHg 32%
    17:00 +34°C° 0 mm 2 mps 753 mmHg 33%
    18:00 +34°C° 0 mm 2 mps 753 mmHg 34%
    19:00 +32°C° 0.3 mm 4 mps 754 mmHg 43%
    20:00 +28°C° 0.3 mm 6 mps 754 mmHg 51%
    21:00 +26°C° 0.3 mm 8 mps 755 mmHg 60%
    22:00 +24°C° 0.1 mm 8 mps 755 mmHg 64%
    23:00 +23°C° 0.1 mm 8 mps 755 mmHg 67%

    4 June, Thursday

    Time Temperature Precipitation Wind Pressure Humidity
    00:00 +22°C° 0.1 mm 8 mps 756 mmHg 71%
    01:00 +21°C° 0 mm 7 mps 756 mmHg 71%
    02:00 +21°C° 0 mm 6 mps 757 mmHg 71%
    03:00 +21°C° 0 mm 5 mps 757 mmHg 70%
    04:00 +21°C° 0 mm 6 mps 758 mmHg 71%
    05:00 +21°C° 0 mm 6 mps 759 mmHg 72%
    06:00 +21°C° 0 mm 6 mps 759 mmHg 73%
    07:00 +23°C° 0 mm 6 mps 759 mmHg 66%
    08:00 +24°C° 0 mm 6 mps 759 mmHg 59%
    09:00 +26°C° 0 mm 6 mps 760 mmHg 53%
    10:00 +28°C° 0 mm 6 mps 760 mmHg 48%
    11:00 +29°C° 0 mm 6 mps 760 mmHg 44%
    12:00 +30°C° 0 mm 6 mps 760 mmHg 40%
    13:00 +30°C° 0 mm 5 mps 760 mmHg 38%
    14:00 +32°C° 0 mm 4 mps 759 mmHg 35%
    15:00 +31°C° 0 mm 3 mps 759 mmHg 33%
    16:00 +31°C° 0 mm 3 mps 759 mmHg 34%
    17:00 +31°C° 0 mm 3 mps 759 mmHg 34%
    18:00 +30°C° 0 mm 2 mps 759 mmHg 35%
    19:00 +29°C° 0 mm 2 mps 759 mmHg 38%
    20:00 +27°C° 0 mm 2 mps 760 mmHg 41%
    21:00 +26°C° 0 mm 2 mps 760 mmHg 45%
    22:00 +25°C° 0 mm 2 mps 760 mmHg 49%
    23:00 +24°C° 0 mm 1 mps 760 mmHg 53%

    5 June, Friday

    Time Temperature Precipitation Wind Pressure Humidity
    00:00 +23°C° 0 mm 1 mps 760 mmHg 58%
    01:00 +23°C° 0.4 mm 2 mps 760 mmHg 60%
    02:00 +22°C° 0.4 mm 3 mps 761 mmHg 62%
    03:00 +22°C° 0.4 mm 3 mps 761 mmHg 64%
    04:00 +22°C° 0.4 mm 4 mps 762 mmHg 64%
    05:00 +22°C° 0.4 mm 4 mps 762 mmHg 65%
    06:00 +22°C° 0.4 mm 4 mps 763 mmHg 65%
    07:00 +21°C° 0.2 mm 5 mps 763 mmHg 70%
    08:00 +20°C° 0.2 mm 6 mps 764 mmHg 75%
    09:00 +20°C° 0.2 mm 7 mps 764 mmHg 80%
    10:00 +20°C° 0.2 mm 6 mps 765 mmHg 79%
    11:00 +19°C° 0.2 mm 5 mps 765 mmHg 77%
    12:00 +19°C° 0.2 mm 4 mps 766 mmHg 75%
    13:00 +20°C° 0 mm 3 mps 766 mmHg 74%
    14:00 +20°C° 0 mm 3 mps 766 mmHg 72%
    15:00 +20°C° 0 mm 3 mps 766 mmHg 70%
    16:00 +20°C° 0 mm 3 mps 766 mmHg 73%
    17:00 +20°C° 0 mm 3 mps 766 mmHg 75%
    18:00 +20°C° 0 mm 3 mps 766 mmHg 77%
    19:00 +19°C° 0 mm 3 mps 766 mmHg 81%
    20:00 +18°C° 0 mm 3 mps 766 mmHg 84%
    21:00 +18°C° 0 mm 3 mps 766 mmHg 88%
    22:00 +17°C° 0 mm 3 mps 767 mmHg 88%
    23:00 +17°C° 0 mm 2 mps 767 mmHg 88%
    Show more